SCP
-0 -0 -0 -0 -0 -0 -0 -1 -0 -0 -0 -0 -0 -0 -0 -0 -0 -0 -0 -0 -0 0 0 0 0 0 0 0 0 0 0 0 0 0 0 0 0 0 0 0 0 0 0
-0 -0 -0 -0 -0 -0 -0 -0 -0 -0 -0 -0 -0 -0 -0 -0 -0 -0 -0 -0 -0 0 0 0 0 0 0 0 0 0 0 0 0 0 0 0 0 0 0 0 0 0 0
-1 -0 -0 -0 -0 -0 -0 -0 -0 -0 -0 -0 -0 -0 -0 -0 -0 -0 0 0 0 0 0 0 0 0 0 0 0 0 0 0 0 0 0 0 0 0 0 0 0 0 0
-1 -0 -0 -0 -0 -0 -0 -0 -0 -0 -0 -0 -0 -0 -0 -0 -0 -0 -0 0 0 0 0 0 0 0 0 0 0 0 0 0 0 0 0 0 0 0 0 0 0 0 0
-0 -0 -0 -0 -0 -0 -0 -0 -0 -0 -0 -0 -0 -0 -0 -0 -0 -0 -0 0 0 0 0 0 0 0 0 0 0 0 0 0 0 0 0 0 0 0 0 0 0 0 0
-0 -0 -0 -0 -0 -0 -0 -0 -0 -0 -0 -0 -0 -0 -0 -0 -0 -0 -0 0 0 0 0 0 0 0 0 0 0 0 0 0 0 0 0 0 0 0 0 0 0 0 0
-0 -0 -0 -0 -0 -0 -0 -0 -0 -0 -0 -0 -0 -0 -0 -0 -0 0 0 0 0 0 0 0 0 0 0 0 0 0 0 0 0 0 0 0 0 0 0 0 0 0 0
-0 -0 -0 -0 -0 -0 -0 -0 -0 -0 -0 -0 -0 -0 -0 -0 0 0 0 0 0 0 0 0 0 0 0 0 0 0 0 0 0 0 0 0 0 0 0 0 0 0 0
-0 -0 -0 0 -0 -0 -0 -0 -0 -0 -0 -0 -0 -0 -0 0 0 0 0 0 0 0 0 0 0 0 0 0 0 0 0 0 0 0 0 0 0 0 0 0 0 0 0
0 0 -0 -0 -0 -0 -0 -0 -0 -0 -0 -0 -0 0 0 0 0 0 0 0 0 0 0 0 0 0 0 0 0 0 0 0 0 0 0 0 0 0 0 0 0 1 0
0 0 -0 -0 -0 -0 -0 -0 -0 -0 0 0 0 0 0 0 0 0 0 0 0 0 0 0 0 0 0 0 0 0 0 0 0 0 0 0 0 0 0 0 0 0 0
0 0 0 0 0 0 0 0 0 0 0 0 0 0 0 0 0 -0 0 0 0 0 0 0 0 0 0 0 0 0 0 0 0 0 0 0 0 0 0 0 0 0 0
0 0 0 0 0 0 0 0 0 0 0 0 0 0 0 0 -0 0 0 0 0 0 0 0 0 0 0 0 0 0 0 0 0 0 0 0 0 0 0 0 0 0 0
0 0 0 0 0 0 0 0 0 0 0 0 0 0 0 0 0 0 0 0 0 0 0 0 0 0 0 0 0 0 0 0 0 0 0 0 0 0 0 0 0 1 1
-0 0 0 0 0 0 0 0 0 0 0 0 0 0 0 0 0 0 0 0 0 0 0 0 0 0 0 0 0 0 0 0 0 0 0 0 0 0 0 0 1 1 1
-0 -0 0 0 0 0 0 0 0 0 0 0 0 0 0 0 0 0 0 0 0 0 0 0 0 0 0 0 0 0 0 0 0 0 0 0 0 0 0 0 1 1 1
0 0 0 0 0 -0 0 0 0 0 0 0 0 0 0 0 0 0 0 0 0 0 0 0 0 0 0 0 0 0 0 0 0 0 0 0 0 1 0 0 0 1 1
0 0 0 0 0 0 0 0 0 0 0 0 0 0 0 0 0 0 0 0 0 0 0 0 0 0 0 1 1 1 1 1 0 1 1 1 1 1 0 0 0 0 0
0 0 0 0 0 0 0 0 0 0 0 1 1 0 0 0 0 0 0 0 0 0 0 0 1 1 1 1 1 1 2 1 1 1 1 1 1 1 0 0 0 0 0
0 0 0 0 0 0 0 0 1 1 2 2 1 1 0 0 0 1 0 1 1 1 1 1 1 1 1 1 2 2 2 2 1 1 1 0 0 -0 0 0 0 0 0
0 0 0 0 0 0 0 0 1 1 1 1 1 2 1 1 1 1 1 1 1 1 2 2 2 1 1 1 2 1 0 1 1 1 1 1 1 -0 0 0 0 0 0
1 1 1 1 0 0 0 0 0 1 1 1 0 0 0 1 1 1 1 2 2 2 2 2 2 2 2 2 2 2 0 0 0 1 1 1 1 0 0 0 1 0 1
1 1 1 1 0 0 0 0 0 1 1 0 0 0 0 0 0 0 0 1 1 1 0 1 1 1 1 1 1 1 1 0 0 0 0 0 0 1 1 0 0 0 0
1 1 1 1 1 1 1 1 2 1 0 0 0 -0 0 0 0 0 0 0 0 0 0 1 1 1 1 1 1 1 1 2 2 1 0 0 0 0 1 0 0 0 1
1 1 1 1 1 1 1 0 0 0 0 -0 0 0 0 0 0 0 0 0 0 0 0 0 0 0 1 0 1 1 1 1 1 1 0 0 0 0 0 0 -0 0 0
0 0 0 0 0 0 0 0 0 0 0 0 0 0 0 0 0 0 0 0 0 0 0 0 0 0 0 0 1 1 1 1 1 1 1 0 1 0 1 0 -0 0 0
Wind_Speed_500mb
53 51 48 43 39 36 36 32 37 37 35 31 25 20 20 29 36 35 31 27 25 24 24 23 22 22 23 22 19 22 23 26 29 29 29 28 27 26 22 21 21 20 21
60 55 50 44 39 36 32 30 32 33 33 29 23 22 27 34 35 32 28 24 23 22 22 21 19 18 17 16 16 18 20 20 20 22 24 25 25 23 23 21 20 18 20
61 59 52 45 39 34 29 27 26 28 30 28 26 28 33 35 32 28 24 22 20 20 19 17 15 14 14 14 13 14 15 17 19 20 18 19 19 20 21 20 19 18 18
64 59 54 46 39 33 27 24 23 27 30 30 31 32 35 34 30 26 22 20 18 17 16 14 12 10 10 9 7 8 9 11 14 13 13 10 15 17 17 17 16 17 17
63 58 53 45 37 32 26 23 23 27 30 32 32 33 33 31 27 22 19 17 15 14 13 11 9 8 7 6 4 2 0 4 8 9 7 6 9 11 13 13 14 13 14
61 58 51 45 38 33 26 22 20 22 26 28 30 31 29 27 23 19 16 13 12 11 10 8 7 6 5 4 4 5 9 10 10 8 8 4 2 4 9 9 9 10 11
62 58 52 45 38 34 26 22 19 19 20 23 25 25 24 22 20 18 15 13 11 10 8 7 5 5 4 4 5 9 13 13 14 14 10 5 3 3 6 8 10 7 8
59 57 51 46 40 36 31 26 22 20 20 21 22 22 23 22 20 18 15 12 10 9 7 6 5 5 5 7 9 12 13 15 14 15 12 10 8 7 8 10 11 10 8
57 56 52 47 42 37 34 31 27 24 22 23 25 26 28 28 25 22 18 14 12 10 8 7 7 7 7 9 11 14 14 16 17 16 15 15 11 8 9 10 11 11 8
56 53 52 49 44 40 36 35 33 29 27 24 23 22 24 27 27 25 23 20 17 15 12 11 11 11 10 11 12 14 15 16 19 19 14 10 11 10 13 14 11 11 10
59 56 53 49 43 39 37 36 34 31 28 25 24 22 22 22 23 24 25 23 22 20 17 16 16 16 16 16 17 17 17 19 20 19 15 13 15 15 17 17 15 10 9
58 56 52 46 42 41 39 38 37 35 32 29 27 24 22 20 19 21 22 23 23 22 21 20 20 21 22 22 22 23 23 24 24 21 19 19 18 18 19 18 18 13 12
54 53 50 46 43 40 37 36 36 36 34 32 28 25 22 21 21 21 20 22 24 24 23 24 23 26 27 28 28 28 28 29 31 28 28 28 26 26 26 26 22 19 17
53 51 49 48 45 40 37 35 32 33 31 29 26 26 23 21 20 21 22 24 24 23 24 25 27 27 25 25 24 25 28 27 27 31 33 32 32 29 25 23 23 25 23
47 45 44 44 42 40 41 37 35 29 30 27 26 24 23 22 20 23 22 23 24 26 24 24 24 28 30 29 28 27 26 30 31 34 31 26 25 21 24 22 21 24 26
41 42 43 41 38 39 35 32 31 26 25 23 24 21 22 20 18 22 23 23 24 26 27 28 27 32 33 36 35 34 34 36 36 37 30 27 27 26 30 33 31 30 28
37 41 38 34 41 38 38 33 31 27 29 26 21 16 16 18 14 16 18 19 21 24 25 27 28 33 36 37 41 43 45 39 30 40 37 40 35 32 31 32 35 35 34
33 32 31 32 33 36 37 33 31 30 28 24 17 18 21 19 20 20 19 21 24 29 31 33 35 40 43 43 43 43 44 46 43 42 42 35 33 31 35 31 28 27 27
35 37 34 28 30 32 35 31 29 28 28 23 23 20 24 25 24 28 29 27 29 34 39 40 46 49 49 48 44 45 44 45 42 41 43 32 28 28 44 39 34 32 29
45 45 41 35 30 27 26 27 25 18 19 21 23 16 20 27 27 30 27 29 29 31 37 40 43 47 48 51 50 51 52 49 48 44 41 46 55 33 53 44 38 40 32
31 40 40 32 30 28 28 29 32 34 30 23 26 31 30 24 27 32 31 34 33 33 36 43 44 46 52 51 47 49 49 50 43 46 47 52 45 66 49 34 37 38 33
31 35 35 29 25 28 31 32 29 28 34 35 33 33 28 27 27 29 31 33 37 42 45 46 48 44 49 54 50 50 39 34 38 35 38 22 19 33 41 34 35 34 29
34 33 29 24 24 26 21 19 18 15 14 10 8 12 15 18 25 29 34 36 43 47 46 48 52 53 53 55 52 46 27 30 32 26 29 30 22 23 24 39 42 41 41
31 31 27 26 26 21 15 11 8 7 6 7 14 17 20 27 26 26 26 29 34 39 42 46 50 52 51 51 48 51 49 49 40 33 50 48 50 67 57 46 51 50 50
28 28 26 19 17 13 7 1 4 5 9 15 19 22 20 18 18 20 22 25 26 27 29 31 32 32 37 41 45 48 43 44 49 43 37 44 45 59 74 65 67 56 55
28 23 18 17 16 11 5 7 9 12 17 17 20 19 20 20 23 28 31 32 33 33 34 34 33 30 28 30 30 31 31 34 28 33 41 43 49 48 73 76 69 52 51
Wind_Direction_500mb
172 167 157 154 149 146 146 150 151 154 155 151 146 142 136 136 133 133 131 126 120 116 113 113 110 107 106 103 97 86 82 79 72 69 70 70 69 69 63 67 65 63 62
166 164 157 156 150 146 150 150 152 157 160 155 153 148 141 138 134 132 130 125 121 119 117 118 113 108 110 114 101 81 75 76 63 63 61 65 64 66 65 61 61 61 59
167 162 158 157 152 149 151 147 148 156 161 157 154 147 142 140 135 133 130 126 123 123 122 123 119 113 114 117 104 82 72 64 53 50 53 58 62 58 61 59 56 57 55
166 162 160 158 156 151 149 147 142 151 155 154 152 148 147 144 141 139 137 132 130 128 126 127 125 124 119 129 119 84 64 46 34 35 38 55 56 56 55 55 55 50 47
165 164 161 161 159 153 150 144 138 147 152 152 153 153 152 149 148 145 142 139 138 136 133 133 137 145 142 153 177 170 14 351 15 23 21 38 48 47 47 44 47 49 41
165 165 163 163 161 159 160 151 140 143 152 154 158 158 159 159 156 155 153 150 147 147 146 144 150 164 174 191 219 253 264 281 298 324 341 325 25 47 41 24 33 33 41
167 166 165 166 166 166 171 166 157 147 148 158 164 169 172 174 174 174 174 174 168 164 163 168 175 189 211 239 249 256 269 278 283 292 291 302 310 343 13 7 359 352 11
169 168 169 169 172 174 179 180 178 167 157 159 169 181 187 195 197 196 198 199 193 186 184 198 210 230 239 249 259 264 271 285 290 293 296 272 288 315 327 341 344 331 324
174 173 173 174 177 182 185 187 190 187 179 175 176 187 194 201 204 205 211 219 221 212 213 225 235 236 240 247 254 265 272 280 287 288 294 268 270 307 315 313 331 327 305
176 180 180 181 183 186 191 195 197 196 196 194 190 193 200 206 209 210 215 218 227 235 231 239 248 253 256 256 258 261 267 275 284 280 282 252 264 288 302 302 303 321 312
178 183 187 189 189 192 199 202 204 205 207 209 210 209 212 215 217 219 222 225 227 236 241 246 257 263 267 268 270 270 268 266 278 278 253 257 271 286 300 288 271 288 309
184 188 193 194 196 200 204 205 207 209 215 219 221 222 226 228 231 233 234 237 242 246 254 260 269 275 276 275 274 274 273 272 264 269 260 257 264 275 289 298 266 264 281
188 191 193 197 200 204 209 210 212 214 219 223 226 228 231 237 244 246 247 249 251 255 264 271 275 280 283 281 278 276 276 276 265 260 258 260 264 270 279 278 268 254 268
189 193 196 198 201 204 209 212 216 220 224 229 235 239 243 248 256 263 261 260 264 264 269 274 279 281 280 288 287 285 277 274 269 267 267 264 268 269 271 272 255 259 261
190 195 199 204 205 209 211 210 213 221 225 231 237 245 254 262 269 275 279 280 277 276 275 279 285 282 278 284 289 290 289 277 270 268 270 263 260 260 267 268 267 261 260
192 198 203 206 210 218 223 219 220 227 234 234 240 248 258 268 278 284 287 289 291 289 284 283 284 281 281 283 285 287 288 284 271 266 267 272 264 274 274 274 268 262 262
203 204 209 216 214 220 225 224 226 227 235 236 247 269 279 277 283 289 297 303 309 308 306 300 292 290 290 291 291 289 286 286 284 266 271 269 273 280 273 270 278 261 252
203 203 202 219 222 228 229 231 236 241 251 249 246 262 275 277 271 276 285 292 292 297 298 298 299 294 293 294 300 301 293 283 274 273 272 264 276 277 281 274 277 266 254
209 208 210 221 225 231 232 235 244 251 253 247 260 281 288 286 291 289 287 287 286 287 290 294 295 295 295 288 295 300 297 284 277 276 272 257 271 278 286 270 268 259 256
218 223 229 236 236 237 233 230 241 256 263 245 250 277 300 279 272 278 285 289 290 291 292 295 294 294 293 290 289 297 305 299 276 276 269 264 264 262 266 267 265 264 262
207 216 225 226 235 239 236 244 246 260 250 247 269 281 282 283 266 274 279 281 285 286 287 285 287 292 292 293 290 291 306 303 285 275 273 271 267 271 266 258 262 265 255
209 208 214 219 220 232 234 255 252 256 261 277 293 296 292 287 276 280 284 287 286 287 284 286 289 291 288 288 285 294 300 297 299 273 261 255 264 263 267 274 266 252 249
226 218 218 215 225 234 245 256 257 250 244 260 311 326 329 311 301 295 290 282 284 287 286 284 283 282 282 282 283 284 284 279 283 239 212 234 240 279 257 255 255 255 263
229 224 225 226 230 235 235 233 223 215 239 62 38 13 359 341 328 315 305 298 292 292 290 287 284 280 279 281 282 281 278 270 269 275 268 275 263 250 233 267 264 268 262
227 220 226 228 217 200 182 98 330 346 52 42 31 14 20 24 20 14 3 355 345 335 318 307 299 294 288 284 278 277 281 274 273 252 274 264 260 247 227 247 274 272 262
213 206 194 177 154 132 82 63 46 49 62 56 50 38 34 20 12 7 1 353 345 338 334 333 329 321 313 300 293 289 281 267 261 259 253 255 260 255 246 251 260 257 264
Wind_Speed_850mb
53 51 48 43 39 36 36 32 37 37 35 31 25 20 20 29 36 35 31 27 25 24 24 23 22 22 23 22 19 22 23 26 29 29 29 28 27 26 22 21 21 20 21
60 55 50 44 39 36 32 30 32 33 33 29 23 22 27 34 35 32 28 24 23 22 22 21 19 18 17 16 16 18 20 20 20 22 24 25 25 23 23 21 20 18 20
61 59 52 45 39 34 29 27 26 28 30 28 26 28 33 35 32 28 24 22 20 20 19 17 15 14 14 14 13 14 15 17 19 20 18 19 19 20 21 20 19 18 18
64 59 54 46 39 33 27 24 23 27 30 30 31 32 35 34 30 26 22 20 18 17 16 14 12 10 10 9 7 8 9 11 14 13 13 10 15 17 17 17 16 17 17
63 58 53 45 37 32 26 23 23 27 30 32 32 33 33 31 27 22 19 17 15 14 13 11 9 8 7 6 4 2 0 4 8 9 7 6 9 11 13 13 14 13 14
61 58 51 45 38 33 26 22 20 22 26 28 30 31 29 27 23 19 16 13 12 11 10 8 7 6 5 4 4 5 9 10 10 8 8 4 2 4 9 9 9 10 11
62 58 52 45 38 34 26 22 19 19 20 23 25 25 24 22 20 18 15 13 11 10 8 7 5 5 4 4 5 9 13 13 14 14 10 5 3 3 6 8 10 7 8
59 57 51 46 40 36 31 26 22 20 20 21 22 22 23 22 20 18 15 12 10 9 7 6 5 5 5 7 9 12 13 15 14 15 12 10 8 7 8 10 11 10 8
57 56 52 47 42 37 34 31 27 24 22 23 25 26 28 28 25 22 18 14 12 10 8 7 7 7 7 9 11 14 14 16 17 16 15 15 11 8 9 10 11 11 8
56 53 52 49 44 40 36 35 33 29 27 24 23 22 24 27 27 25 23 20 17 15 12 11 11 11 10 11 12 14 15 16 19 19 14 10 11 10 13 14 11 11 10
59 56 53 49 43 39 37 36 34 31 28 25 24 22 22 22 23 24 25 23 22 20 17 16 16 16 16 16 17 17 17 19 20 19 15 13 15 15 17 17 15 10 9
58 56 52 46 42 41 39 38 37 35 32 29 27 24 22 20 19 21 22 23 23 22 21 20 20 21 22 22 22 23 23 24 24 21 19 19 18 18 19 18 18 13 12
54 53 50 46 43 40 37 36 36 36 34 32 28 25 22 21 21 21 20 22 24 24 23 24 23 26 27 28 28 28 28 29 31 28 28 28 26 26 26 26 22 19 17
53 51 49 48 45 40 37 35 32 33 31 29 26 26 23 21 20 21 22 24 24 23 24 25 27 27 25 25 24 25 28 27 27 31 33 32 32 29 25 23 23 25 23
47 45 44 44 42 40 41 37 35 29 30 27 26 24 23 22 20 23 22 23 24 26 24 24 24 28 30 29 28 27 26 30 31 34 31 26 25 21 24 22 21 24 26
41 42 43 41 38 39 35 32 31 26 25 23 24 21 22 20 18 22 23 23 24 26 27 28 27 32 33 36 35 34 34 36 36 37 30 27 27 26 30 33 31 30 28
37 41 38 34 41 38 38 33 31 27 29 26 21 16 16 18 14 16 18 19 21 24 25 27 28 33 36 37 41 43 45 39 30 40 37 40 35 32 31 32 35 35 34
33 32 31 32 33 36 37 33 31 30 28 24 17 18 21 19 20 20 19 21 24 29 31 33 35 40 43 43 43 43 44 46 43 42 42 35 33 31 35 31 28 27 27
35 37 34 28 30 32 35 31 29 28 28 23 23 20 24 25 24 28 29 27 29 34 39 40 46 49 49 48 44 45 44 45 42 41 43 32 28 28 44 39 34 32 29
45 45 41 35 30 27 26 27 25 18 19 21 23 16 20 27 27 30 27 29 29 31 37 40 43 47 48 51 50 51 52 49 48 44 41 46 55 33 53 44 38 40 32
31 40 40 32 30 28 28 29 32 34 30 23 26 31 30 24 27 32 31 34 33 33 36 43 44 46 52 51 47 49 49 50 43 46 47 52 45 66 49 34 37 38 33
31 35 35 29 25 28 31 32 29 28 34 35 33 33 28 27 27 29 31 33 37 42 45 46 48 44 49 54 50 50 39 34 38 35 38 22 19 33 41 34 35 34 29
34 33 29 24 24 26 21 19 18 15 14 10 8 12 15 18 25 29 34 36 43 47 46 48 52 53 53 55 52 46 27 30 32 26 29 30 22 23 24 39 42 41 41
31 31 27 26 26 21 15 11 8 7 6 7 14 17 20 27 26 26 26 29 34 39 42 46 50 52 51 51 48 51 49 49 40 33 50 48 50 67 57 46 51 50 50
28 28 26 19 17 13 7 1 4 5 9 15 19 22 20 18 18 20 22 25 26 27 29 31 32 32 37 41 45 48 43 44 49 43 37 44 45 59 74 65 67 56 55
28 23 18 17 16 11 5 7 9 12 17 17 20 19 20 20 23 28 31 32 33 33 34 34 33 30 28 30 30 31 31 34 28 33 41 43 49 48 73 76 69 52 51
Wind_Direction_850mb
172 167 157 154 149 146 146 150 151 154 155 151 146 142 136 136 133 133 131 126 120 116 113 113 110 107 106 103 97 86 82 79 72 69 70 70 69 69 63 67 65 63 62
166 164 157 156 150 146 150 150 152 157 160 155 153 148 141 138 134 132 130 125 121 119 117 118 113 108 110 114 101 81 75 76 63 63 61 65 64 66 65 61 61 61 59
167 162 158 157 152 149 151 147 148 156 161 157 154 147 142 140 135 133 130 126 123 123 122 123 119 113 114 117 104 82 72 64 53 50 53 58 62 58 61 59 56 57 55
166 162 160 158 156 151 149 147 142 151 155 154 152 148 147 144 141 139 137 132 130 128 126 127 125 124 119 129 119 84 64 46 34 35 38 55 56 56 55 55 55 50 47
165 164 161 161 159 153 150 144 138 147 152 152 153 153 152 149 148 145 142 139 138 136 133 133 137 145 142 153 177 170 14 351 15 23 21 38 48 47 47 44 47 49 41
165 165 163 163 161 159 160 151 140 143 152 154 158 158 159 159 156 155 153 150 147 147 146 144 150 164 174 191 219 253 264 281 298 324 341 325 25 47 41 24 33 33 41
167 166 165 166 166 166 171 166 157 147 148 158 164 169 172 174 174 174 174 174 168 164 163 168 175 189 211 239 249 256 269 278 283 292 291 302 310 343 13 7 359 352 11
169 168 169 169 172 174 179 180 178 167 157 159 169 181 187 195 197 196 198 199 193 186 184 198 210 230 239 249 259 264 271 285 290 293 296 272 288 315 327 341 344 331 324
174 173 173 174 177 182 185 187 190 187 179 175 176 187 194 201 204 205 211 219 221 212 213 225 235 236 240 247 254 265 272 280 287 288 294 268 270 307 315 313 331 327 305
176 180 180 181 183 186 191 195 197 196 196 194 190 193 200 206 209 210 215 218 227 235 231 239 248 253 256 256 258 261 267 275 284 280 282 252 264 288 302 302 303 321 312
178 183 187 189 189 192 199 202 204 205 207 209 210 209 212 215 217 219 222 225 227 236 241 246 257 263 267 268 270 270 268 266 278 278 253 257 271 286 300 288 271 288 309
184 188 193 194 196 200 204 205 207 209 215 219 221 222 226 228 231 233 234 237 242 246 254 260 269 275 276 275 274 274 273 272 264 269 260 257 264 275 289 298 266 264 281
188 191 193 197 200 204 209 210 212 214 219 223 226 228 231 237 244 246 247 249 251 255 264 271 275 280 283 281 278 276 276 276 265 260 258 260 264 270 279 278 268 254 268
189 193 196 198 201 204 209 212 216 220 224 229 235 239 243 248 256 263 261 260 264 264 269 274 279 281 280 288 287 285 277 274 269 267 267 264 268 269 271 272 255 259 261
190 195 199 204 205 209 211 210 213 221 225 231 237 245 254 262 269 275 279 280 277 276 275 279 285 282 278 284 289 290 289 277 270 268 270 263 260 260 267 268 267 261 260
192 198 203 206 210 218 223 219 220 227 234 234 240 248 258 268 278 284 287 289 291 289 284 283 284 281 281 283 285 287 288 284 271 266 267 272 264 274 274 274 268 262 262
203 204 209 216 214 220 225 224 226 227 235 236 247 269 279 277 283 289 297 303 309 308 306 300 292 290 290 291 291 289 286 286 284 266 271 269 273 280 273 270 278 261 252
203 203 202 219 222 228 229 231 236 241 251 249 246 262 275 277 271 276 285 292 292 297 298 298 299 294 293 294 300 301 293 283 274 273 272 264 276 277 281 274 277 266 254
209 208 210 221 225 231 232 235 244 251 253 247 260 281 288 286 291 289 287 287 286 287 290 294 295 295 295 288 295 300 297 284 277 276 272 257 271 278 286 270 268 259 256
218 223 229 236 236 237 233 230 241 256 263 245 250 277 300 279 272 278 285 289 290 291 292 295 294 294 293 290 289 297 305 299 276 276 269 264 264 262 266 267 265 264 262
207 216 225 226 235 239 236 244 246 260 250 247 269 281 282 283 266 274 279 281 285 286 287 285 287 292 292 293 290 291 306 303 285 275 273 271 267 271 266 258 262 265 255
209 208 214 219 220 232 234 255 252 256 261 277 293 296 292 287 276 280 284 287 286 287 284 286 289 291 288 288 285 294 300 297 299 273 261 255 264 263 267 274 266 252 249
226 218 218 215 225 234 245 256 257 250 244 260 311 326 329 311 301 295 290 282 284 287 286 284 283 282 282 282 283 284 284 279 283 239 212 234 240 279 257 255 255 255 263
229 224 225 226 230 235 235 233 223 215 239 62 38 13 359 341 328 315 305 298 292 292 290 287 284 280 279 281 282 281 278 270 269 275 268 275 263 250 233 267 264 268 262
227 220 226 228 217 200 182 98 330 346 52 42 31 14 20 24 20 14 3 355 345 335 318 307 299 294 288 284 278 277 281 274 273 252 274 264 260 247 227 247 274 272 262
213 206 194 177 154 132 82 63 46 49 62 56 50 38 34 20 12 7 1 353 345 338 334 333 329 321 313 300 293 289 281 267 261 259 253 255 260 255 246 251 260 257 264